This is the latest recevied weather packets stored in our database for station/object WD8INF-9. If no packets are shown the sender has not sent any weather packets the latest 10 day(s).
| Time | Temp. | Humidity | Pressure | Rain* | Wind** | Luminosity | Snow |
|---|---|---|---|---|---|---|---|
| 1778270634 | 20.56° C | - | 1008.4 hPa | 0 mm | - | - | - |
| 1778270334 | 20.56° C | - | 1008.5 hPa | 0 mm | - | - | - |
| 1778270034 | 21.11° C | - | 1008.5 hPa | 0 mm | - | - | - |
| 1778269733 | 21.11° C | - | 1008.7 hPa | 0 mm | - | - | - |
| 1778269433 | 21.67° C | - | 1008.3 hPa | 0 mm | - | - | - |
| 1778269133 | 22.22° C | - | 1008.6 hPa | 0 mm | - | - | - |
| 1778268833 | 22.22° C | - | 1008.8 hPa | 0 mm | - | - | - |
| 1778268533 | 23.33° C | - | 1008.8 hPa | 0 mm | - | - | - |
| 1778268232 | 25° C | - | 1009 hPa | 0 mm | - | - | - |
| 1778267932 | 26.11° C | - | 1008.7 hPa | 0 mm | - | - | - |
| 1778267631 | 25° C | - | 1009.1 hPa | 0 mm | - | - | - |
| 1778267331 | 23.89° C | - | 1008.7 hPa | 0 mm | - | - | - |
| 1778267031 | 23.89° C | - | 1009.1 hPa | 0 mm | - | - | - |
| 1778266730 | 23.33° C | - | 1009.5 hPa | 0 mm | - | - | - |
| 1778266430 | 26.11° C | - | 1009.8 hPa | 0 mm | - | - | - |
| 1778266130 | 29.44° C | - | 1009.4 hPa | 0 mm | - | - | - |
| 1778265830 | 27.78° C | - | 1009.7 hPa | 0 mm | - | - | - |
| 1778265530 | 27.78° C | - | 1009.2 hPa | 0 mm | - | - | - |
| 1778265229 | 26.11° C | - | 1009.6 hPa | 0 mm | - | - | - |
| 1778264929 | 23.89° C | - | 1009.5 hPa | 0 mm | - | - | - |
| 1778264629 | 23.89° C | - | 1009.5 hPa | 0 mm | - | - | - |
| 1778264328 | 24.44° C | - | 1010 hPa | 0 mm | - | - | - |
| 1778264028 | 22.78° C | - | 1010.1 hPa | 0 mm | - | - | - |
| 1778263725 | 23.33° C | - | 1009.9 hPa | 0 mm | - | - | - |
| 1778263424 | 22.78° C | - | 1010.1 hPa | 0 mm | - | - | - |
* Rain since midnight (hover to see other rain measurements)
** Current wind speed in m/s (hover to see current wind gust speed)